CAPE
0 0 0 0 0 0 0 0 0 0 0 0 0 0 0 0 0 0 0 0 0 0 0 0 629 1456 1470 1659 2104 2352 2273 2270 1973 1385 1203 1257 1414 1496 1518 1757 1978 2096 2192 1833 1515 1264 1407 1454 1408 1402 1440 1307 1000 910 832 740 604 590 554 519 496 559 616 651 711 768 788 766 802 820 774 747 715 693 657 611 566 594 608 645 718 739 728 729 699 628
0 0 0 0 0 0 0 0 0 0 0 0 0 0 0 0 0 0 0 0 0 0 108 292 1063 1335 1432 1542 1887 2112 2097 2115 1923 1421 1130 1057 1261 1407 1588 1846 2054 2040 1956 1660 1355 1270 1384 1409 1414 1389 1265 1011 883 816 761 608 509 614 613 575 567 634 665 676 725 798 850 866 816 792 706 606 648 635 614 580 570 590 553 588 661 672 621 598 607 558
0 0 0 0 0 0 0 0 0 0 0 0 0 0 0 0 0 0 0 0 0 0 227 980 732 1178 1437 1438 1617 1938 2021 1927 1726 1282 1166 1126 1129 1288 1552 1817 1772 1638 1559 1534 1417 1280 1357 1310 1265 1241 1083 901 792 732 669 655 649 672 683 674 694 721 748 763 805 864 930 906 807 802 699 642 654 591 574 538 558 563 544 592 632 625 606 573 568 578
0 0 0 0 0 0 0 0 0 0 0 0 0 0 0 0 0 0 0 0 159 0 915 1045 725 1137 1384 1227 1304 1622 1732 1630 1445 1288 1241 1176 1183 1275 1461 1656 1517 1502 1548 1410 1259 1208 1246 1198 1200 1100 932 823 735 593 676 731 751 725 742 784 785 842 923 942 934 981 1018 935 835 815 723 645 549 514 488 439 543 586 592 591 569 587 572 563 532 467
0 0 0 0 0 0 0 0 0 0 0 0 0 0 0 0 0 0 0 607 1254 1144 1130 996 1029 1230 1309 1082 1038 1049 1336 1367 1354 1289 1232 1215 1154 1187 1356 1513 1408 1378 1481 1348 1178 1174 1176 1132 1114 1030 879 874 733 667 697 715 743 746 779 801 843 989 1078 1030 980 943 948 889 840 813 719 613 454 372 351 416 522 549 546 590 617 654 564 480 387 280
0 0 0 0 0 0 0 0 0 0 0 0 0 0 0 0 0 0 0 9 152 1159 1002 544 326 805 1325 1295 1092 956 1008 1233 1294 1280 1264 1224 1073 1188 1230 1370 1528 1587 1553 1388 1208 1215 1164 1161 1109 973 920 919 772 700 786 776 801 826 904 918 1016 1110 1123 1047 966 851 868 863 738 746 640 511 411 327 404 461 511 458 530 610 581 550 427 294 197 130
0 0 0 0 0 0 0 0 0 0 0 0 0 0 0 0 0 0 0 0 0 0 904 975 0 379 1278 1400 1202 991 1031 1273 1329 1334 1268 1104 944 1145 1257 1336 1648 1703 1517 1284 1247 1233 1191 1126 1021 919 868 886 823 802 894 930 957 975 971 1030 1108 1139 1131 1021 945 854 879 833 702 672 543 409 401 399 421 415 448 528 540 521 435 250 71 0 0 0
0 0 0 0 0 0 0 0 0 0 0 0 0 0 0 0 0 0 0 0 0 803 1067 950 185 268 440 824 1211 1215 1051 1284 1304 1217 1092 968 915 1128 1269 1376 1469 1592 1391 1154 1134 1123 1050 1020 974 870 796 888 816 911 1006 1070 1011 1019 1069 1102 1114 1109 1026 964 934 865 847 840 710 596 482 411 439 383 326 346 469 500 452 303 193 23 114 53 0 0
0 0 0 0 0 0 0 0 0 0 0 0 0 0 0 0 0 0 0 0 224 760 869 767 465 455 354 620 1119 1052 1106 1037 1154 1069 917 882 843 1067 1275 1351 1390 1350 1309 1175 1203 1191 1071 978 1014 970 936 966 959 1034 1149 1124 1042 1083 1129 1148 1128 1098 898 877 921 879 822 775 660 548 483 460 418 381 408 441 416 350 257 213 177 122 76 0 0 0
0 0 0 0 0 0 0 0 0 0 0 0 0 0 0 0 0 0 0 0 102 9 206 500 156 0 179 504 1061 1092 950 992 986 958 828 875 1003 912 1115 1276 1329 1256 1223 1111 1132 1135 998 926 1074 1142 1077 1074 1054 1021 1081 1088 1040 1096 1076 1125 1072 1122 868 885 923 876 770 744 694 634 604 554 526 516 494 376 293 271 252 221 175 0 0 157 0 0
0 0 0 0 0 0 0 0 0 0 0 0 0 0 0 0 0 0 0 0 0 0 0 151 258 0 0 223 927 1045 964 1145 1156 990 882 926 1005 979 918 1124 1225 1231 1192 1077 956 959 876 926 960 981 936 1036 1066 1086 991 986 976 1039 1046 1120 1135 1124 934 816 888 797 768 754 746 716 707 629 531 436 360 291 300 294 277 171 20 0 0 0 0 0
0 0 0 0 0 0 0 0 0 0 0 0 0 0 0 0 0 0 0 0 0 0 0 3 297 0 0 0 616 942 1100 1130 1040 956 952 920 933 893 872 1071 1205 1186 1217 1151 995 1012 1051 890 896 1041 950 1025 960 996 978 921 800 1001 996 1096 1105 1102 967 864 862 751 801 792 783 750 652 550 430 340 374 398 402 340 118 0 0 0 0 0 0 0
0 0 0 0 0 0 0 0 0 0 0 0 0 0 0 0 0 0 0 0 0 0 0 4 234 199 0 0 164 858 898 1003 1063 938 990 976 907 949 856 943 1126 1145 1289 1242 1149 1086 1122 1084 997 999 860 908 943 976 916 799 819 1036 1027 1046 1005 1025 879 873 851 805 827 819 809 654 529 467 472 498 500 445 337 15 0 115 66 0 0 0 0 0
0 0 0 0 0 0 0 0 0 0 0 0 0 0 0 0 0 0 0 0 0 0 0 5 221 111 0 0 0 570 815 880 1032 1001 945 926 881 944 989 840 927 1021 1196 1284 1124 1114 1172 1116 968 975 811 849 1048 993 892 757 879 1065 1004 936 905 992 994 917 902 888 850 733 629 563 575 593 552 513 437 290 29 185 176 147 126 0 0 0 0 0
0 0 0 0 0 0 0 0 0 0 0 0 0 0 0 0 0 0 0 0 0 0 0 0 80 13 0 0 0 287 730 886 1118 1122 961 858 847 930 1027 976 920 1052 1152 1194 1088 1144 1188 1136 1044 960 897 918 1035 939 871 679 997 1034 970 868 998 954 833 778 704 642 670 682 655 620 602 577 497 385 246 212 167 0 0 51 50 0 0 0 0 0
0 0 0 0 0 0 0 0 0 0 0 0 0 0 0 0 0 0 0 0 0 0 0 59 61 0 0 228 264 115 647 828 1070 1238 1085 886 844 874 1039 1063 900 980 1082 941 1136 1174 1171 1111 1078 999 901 898 995 864 805 742 963 944 922 914 859 634 585 590 584 609 651 672 645 603 503 406 334 215 76 0 0 0 67 126 0 0 0 0 0 0
0 0 0 0 0 0 0 0 0 0 0 0 0 0 0 0 0 0 0 0 0 0 0 115 140 16 189 0 533 221 605 773 948 1116 1181 1069 894 903 987 1010 897 943 1030 922 996 1188 1192 1121 1084 975 808 783 887 792 770 775 885 850 853 788 677 531 530 590 614 647 653 624 556 440 336 256 209 28 172 220 248 240 220 191 140 0 0 0 0 0
0 0 0 0 0 0 0 0 0 0 0 0 0 0 0 0 0 0 0 0 0 0 0 0 3 180 42 37 531 506 592 793 1007 1087 1146 1106 970 886 912 912 856 920 1096 993 998 1144 1199 1176 1135 1025 821 692 738 776 737 751 766 752 707 639 574 493 500 523 536 538 525 465 310 206 212 238 216 241 280 278 252 205 160 47 0 0 0 0 0 0
0 0 0 0 0 0 0 0 0 0 0 0 0 0 0 0 0 0 0 0 0 0 0 0 0 159 0 239 432 561 630 769 958 1068 1097 1059 914 838 838 806 765 972 977 990 971 1052 1126 1100 995 1019 960 791 646 715 726 809 814 710 570 550 523 493 428 539 553 509 445 313 242 293 321 304 304 319 296 242 132 0 0 0 0 0 0 0 0 0
0 0 0 0 0 0 0 0 0 0 0 0 0 0 0 0 0 0 0 0 0 0 0 5 57 111 72 170 408 638 661 742 933 1022 1056 1043 921 801 776 778 807 942 953 1032 974 1037 1027 996 919 912 983 968 731 662 714 770 744 604 498 452 407 453 484 518 472 404 364 282 347 387 387 383 364 297 224 39 0 0 0 0 0 0 0 0 0 0
0 0 0 0 0 0 0 0 0 0 0 0 0 0 0 0 0 0 0 0 0 3 4 56 67 12 76 78 453 643 691 797 894 948 967 950 938 907 822 781 865 883 968 1076 965 886 845 839 841 902 1016 1048 838 656 664 672 651 540 454 413 403 449 459 479 430 370 344 387 419 429 433 420 343 280 230 15 0 0 0 0 0 0 0 0 0 0
0 0 0 0 0 0 0 0 0 0 0 0 0 0 0 0 0 0 0 0 0 0 10 18 72 66 110 97 464 640 725 836 907 925 900 915 964 963 920 848 852 949 1020 1119 1084 932 869 887 948 990 1072 1074 870 698 631 603 582 524 498 462 476 463 494 501 474 438 434 436 451 479 478 443 354 300 262 208 0 0 0 0 0 0 0 0 0 0
0 0 1 0 0 0 0 0 0 0 0 0 0 0 0 0 0 0 0 0 0 0 0 0 19 47 57 82 353 575 726 893 932 887 885 943 999 1017 976 920 916 1056 1051 1092 1110 1046 978 1011 1138 1138 1070 954 768 704 672 616 585 575 544 522 531 537 494 506 548 508 430 454 497 498 494 443 379 329 290 277 182 26 0 0 0 0 0 0 0 0
17 4 0 0 0 0 0 0 0 0 0 0 0 0 0 0 0 0 0 0 0 0 0 0 0 73 60 91 198 490 730 932 944 850 863 896 968 1030 1031 989 930 963 904 1028 1050 1043 1084 1134 1060 901 859 876 670 649 760 750 673 563 486 450 448 476 508 580 565 435 448 518 500 528 536 471 402 336 326 313 232 119 0 0 0 0 0 0 0 0
4 3 0 0 0 0 0 0 0 0 0 0 0 0 0 0 0 0 0 0 0 0 0 0 0 17 106 88 263 521 696 906 916 907 927 934 982 1053 1098 1043 943 883 957 1010 1060 1078 1101 1054 943 827 778 694 585 575 705 806 761 604 507 415 417 465 550 534 475 484 543 560 532 562 535 449 402 380 318 244 226 150 47 0 0 0 0 0 0 0
26 17 22 0 0 0 0 0 0 0 0 0 0 0 0 0 0 0 0 0 0 0 0 0 0 0 131 115 334 629 720 824 888 885 940 978 981 1004 1156 1128 1060 1074 1084 1062 1051 1058 964 896 820 766 679 526 535 600 661 698 614 568 563 541 569 596 526 548 568 570 606 564 576 581 406 326 274 174 137 159 175 143 66 0 0 0 0 0 0 0
26 22 15 29 11 0 0 0 0 0 0 0 0 0 0 0 0 0 0 0 0 0 0 0 0 96 213 175 322 662 758 808 861 912 911 987 996 1028 1122 1194 1167 1197 1156 1036 946 895 819 832 866 827 705 526 478 573 594 558 535 554 607 569 555 514 531 589 615 610 565 600 628 544 469 313 239 188 124 113 119 107 69 0 0 0 0 0 0 0
18 21 13 2 0 0 0 0 0 0 0 0 0 0 0 0 0 0 0 0 0 0 0 0 0 184 139 168 349 653 772 826 859 917 949 964 1054 1003 1075 1155 1128 1173 1150 1045 915 799 813 833 858 865 800 608 465 406 530 516 513 578 560 548 512 547 596 605 598 600 646 660 621 555 448 310 271 212 138 93 84 79 59 0 0 0 0 0 0 0
13 15 2 0 0 0 0 0 0 0 0 0 0 0 0 0 0 0 0 0 0 0 0 0 154 178 154 170 344 634 762 842 887 914 990 1035 983 1000 1027 1155 1180 1197 1181 1068 951 830 783 831 898 878 721 615 488 406 430 388 225 508 555 513 527 604 675 669 656 647 652 662 622 522 369 326 354 321 263 159 103 82 56 0 0 0 0 0 0 0
6 17 9 1 0 0 0 0 0 0 0 0 0 0 0 0 0 0 0 0 0 0 0 16 185 196 164 190 284 601 764 868 907 914 939 1019 1053 1017 1011 1108 1142 1196 1135 1072 1018 864 741 716 741 668 551 667 627 542 500 493 196 202 615 582 558 677 733 725 674 649 635 622 552 422 387 371 377 310 244 164 122 95 48 0 0 0 0 0 0 0
1 5 6 2 0 0 0 0 0 0 0 0 0 0 0 0 0 0 0 0 0 0 0 0 131 190 153 228 348 570 702 834 916 1006 1048 1047 1001 980 1010 1049 1100 1101 1152 1025 965 881 744 637 600 538 710 801 703 638 620 625 614 325 502 596 567 694 784 709 622 620 618 577 473 427 403 364 347 256 196 150 118 94 12 0 0 0 0 0 0 0
0 0 0 0 0 0 0 0 0 0 0 0 0 0 0 0 0 0 0 0 0 63 109 105 168 192 226 230 329 523 749 873 1022 1083 1095 1112 1098 1084 1063 1018 1020 1048 1043 1010 969 869 712 616 587 653 827 808 705 686 615 518 577 548 668 556 511 687 748 698 632 603 599 527 428 442 419 356 289 234 200 136 120 83 4 0 0 0 0 0 0 0
9 2 0 0 1 0 0 0 0 0 0 0 0 0 0 0 0 0 0 0 0 119 126 138 182 201 232 365 441 580 736 929 1053 1090 1132 1121 1122 1101 1043 972 939 953 957 917 893 850 715 618 647 744 828 733 734 687 544 436 498 494 639 490 472 619 683 687 627 614 572 466 413 447 396 304 263 209 198 139 117 69 0 0 0 0 0 0 0 0
4 4 0 0 4 0 0 0 0 0 0 0 76 0 0 0 0 0 0 0 16 93 174 132 146 185 337 455 562 624 727 917 1088 1157 1137 1077 1094 1043 1015 960 902 884 836 764 720 698 681 675 700 772 791 773 722 629 521 454 501 551 552 462 420 563 613 641 623 603 543 440 424 458 365 318 258 194 154 129 114 50 0 0 0 0 0 0 0 0
6 7 9 0 3 0 0 0 0 0 0 137 120 33 0 0 0 0 0 0 32 0 37 108 164 138 485 590 648 706 768 874 978 1048 1121 1098 1054 988 987 948 896 848 812 732 666 671 719 759 798 794 809 833 767 645 551 568 580 612 564 484 447 551 552 506 542 564 500 422 416 489 346 149 248 182 134 108 100 37 0 0 0 0 0 0 0 0
0 0 5 6 16 0 0 0 0 0 88 30 0 0 0 0 0 0 0 0 0 18 89 139 180 189 438 650 753 783 832 891 910 990 1110 1107 1054 989 968 959 887 814 772 730 682 695 747 798 832 848 864 863 742 619 550 571 575 574 609 497 453 543 512 431 438 516 519 441 476 478 269 270 213 153 72 64 85 28 0 0 0 0 0 0 0 0
0 0 0 14 10 13 11 7 18 116 0 0 0 4 0 0 0 0 0 0 21 23 71 98 130 188 424 611 727 778 834 895 894 954 1027 1108 1076 1043 986 914 868 869 802 763 735 737 774 806 849 879 892 851 697 504 487 505 468 481 540 573 568 470 419 444 490 499 517 506 514 459 237 222 131 51 70 74 70 20 0 0 0 0 0 0 0 0
0 0 0 2 5 14 11 0 49 32 30 11 0 0 0 0 0 0 0 0 0 80 52 0 108 356 460 613 730 858 940 982 958 1036 1024 1068 1071 1028 990 956 941 906 856 806 789 816 846 867 901 943 925 856 714 531 474 462 362 310 367 464 524 424 284 183 420 522 587 566 604 215 264 124 48 68 59 44 50 10 0 0 0 0 0 0 0 0
0 0 0 0 0 0 0 48 56 32 9 0 0 0 0 0 0 0 0 0 0 148 89 53 218 442 544 656 791 883 1025 1050 1018 1068 1105 1113 1082 1053 1016 972 900 897 880 827 828 870 890 930 964 955 863 808 708 582 507 478 296 198 238 400 419 278 288 303 430 379 412 517 348 143 204 153 147 126 42 20 30 4 0 0 0 0 0 0 0 0
0 0 0 0 0 0 0 16 20 4 5 9 2 0 0 0 0 0 0 23 12 149 161 96 272 558 585 768 874 896 998 863 904 868 1059 1145 1105 1040 1012 1009 987 976 945 897 882 912 904 922 896 838 808 756 677 580 522 496 371 268 236 291 326 232 117 325 187 225 272 160 171 184 86 177 137 57 4 4 19 3 0 0 0 0 0 0 0 0
0 0 0 0 0 0 0 2 0 0 10 0 0 0 0 0 0 0 0 249 125 173 199 0 34 665 773 814 850 956 984 796 663 724 786 995 1151 1213 1162 1081 1062 1024 998 947 930 901 882 866 788 755 697 670 627 548 509 484 405 341 331 372 442 370 211 400 407 494 384 364 143 163 145 168 132 57 0 5 15 5 1 0 1 0 0 0 0 0
0 0 0 0 0 0 0 0 2 142 61 199 174 33 0 0 0 0 106 136 173 297 220 181 39 121 752 909 913 747 818 702 562 443 632 881 1083 1144 1123 1080 1059 1047 1017 970 942 945 886 828 792 719 636 585 563 530 494 498 488 338 294 333 347 288 298 392 383 137 164 211 214 128 107 241 175 90 6 6 18 16 8 6 8 4 0 0 0 0
2 0 6 3 1 0 0 0 0 70 91 336 78 0 64 0 0 137 194 185 240 314 436 219 172 0 384 875 913 919 828 745 608 564 597 843 1044 1136 1106 1085 1064 1075 1069 990 932 936 895 856 788 690 621 544 518 498 460 483 522 321 211 189 273 219 0 132 344 351 220 166 54 171 163 121 111 40 2 16 18 23 17 13 12 5 0 0 0 0
0 0 0 0 0 2 0 0 90 420 348 235 143 98 208 140 248 241 304 380 449 515 553 537 263 76 84 552 630 882 891 884 835 696 652 763 963 1052 1056 1047 1055 1085 1096 1045 938 910 890 882 801 696 590 537 472 440 419 408 443 473 211 85 34 0 164 336 357 322 315 286 140 139 78 94 56 1 11 18 24 28 29 18 12 4 0 0 0 0
0 28 0 1 0 0 0 196 413 415 452 412 473 526 431 404 418 473 455 433 483 450 554 620 768 596 269 227 473 591 687 686 825 744 725 712 860 994 1045 1037 1044 1091 1102 1090 1026 953 909 848 774 688 574 470 433 401 370 362 292 324 324 104 22 70 160 243 250 372 342 152 102 63 59 66 40 61 56 22 25 34 40 27 16 8 0 0 0 0
8 50 0 42 56 419 372 394 367 446 565 602 618 605 581 536 496 465 479 495 519 572 609 787 697 736 721 649 483 504 672 712 652 733 735 698 750 890 974 998 1029 1098 1100 1093 1083 1018 920 824 720 637 553 440 376 340 325 324 269 272 280 188 125 89 110 175 262 127 246 193 142 87 44 30 25 58 97 29 16 33 41 30 16 2 0 0 0 0
15 0 0 272 406 343 536 479 484 394 372 390 416 423 409 334 306 250 256 346 425 532 610 593 543 555 660 600 670 638 578 580 688 691 714 668 734 815 911 997 1018 1075 1143 1140 1104 1027 923 832 722 589 491 415 299 240 243 249 198 189 212 124 56 15 11 17 144 258 172 113 140 27 4 4 6 104 117 45 20 29 37 37 14 0 0 0 0 0
23 54 229 184 117 139 410 484 407 292 287 259 216 215 153 182 162 187 264 335 374 425 630 677 511 563 323 566 569 630 620 643 692 680 660 701 748 801 858 947 1013 1058 1110 1113 1075 979 905 790 678 541 398 327 277 199 168 133 120 136 185 108 46 19 0 140 143 187 176 125 72 74 42 77 92 79 130 78 15 29 46 43 11 0 15 0 0 0
9 0 164 2 156 167 333 411 344 278 241 186 162 220 238 235 199 176 235 270 301 370 453 511 586 609 594 628 498 526 560 596 610 632 634 695 754 794 843 914 1001 1051 1092 1054 1029 937 866 744 584 458 337 262 197 161 122 96 81 79 118 167 116 76 127 147 237 228 153 82 30 73 59 57 85 96 66 56 20 13 22 21 2 0 0 0 0 0
1 16 5 0 41 89 236 220 210 265 252 295 282 265 270 212 191 204 209 209 249 278 444 498 628 618 595 610 571 686 593 617 653 655 687 755 808 844 878 940 1015 1066 1086 1030 947 888 809 664 496 360 276 218 41 59 91 56 54 64 77 87 90 97 172 114 219 148 167 74 43 61 77 64 17 6 2 8 18 13 12 0 0 0 0 0 0 0
6 10 0 125 0 168 74 220 169 191 229 256 286 273 250 232 216 231 238 266 240 231 334 384 509 571 542 570 694 668 633 622 662 677 689 700 755 816 869 904 966 1005 1026 982 905 811 703 572 419 294 233 187 140 120 91 60 28 25 52 70 72 62 140 103 53 209 62 18 60 61 29 41 63 32 6 4 2 14 13 20 0 0 0 0 0 0
Wind_Speed
nan nan nan nan nan nan nan nan nan nan nan nan nan nan nan nan nan nan nan nan nan nan nan nan 41 39 35 34 32 32 32 29 25 23 27 26 25 25 25 25 24 24 23 22 20 18 17 18 20 22 23 24 24 23 23 23 21 21 22 23 25 25 25 26 26 25 24 24 24 23 21 20 17 17 18 18 18 18 16 15 16 17 18 17 16 15
nan nan nan nan nan nan nan nan nan nan nan nan nan nan nan nan nan nan nan nan nan nan 42 42 42 37 35 34 33 34 32 25 22 24 27 27 24 25 26 26 24 24 24 24 21 19 18 19 22 22 23 24 25 22 22 22 20 20 20 20 21 21 22 24 24 24 24 22 23 23 20 20 19 18 19 19 17 16 14 14 14 16 18 18 15 14
nan nan nan nan nan nan nan nan nan nan nan nan nan nan nan nan nan nan nan nan nan nan 44 42 41 38 36 34 33 30 28 25 23 25 27 29 27 25 25 25 25 25 23 22 20 18 18 20 21 21 21 22 22 22 21 20 21 20 18 17 20 21 23 24 24 24 25 24 23 23 21 22 21 19 18 18 15 13 13 12 13 15 16 16 16 15
nan nan nan nan nan nan nan nan nan nan nan nan nan nan nan nan nan nan nan nan 50 nan 43 42 43 39 40 38 36 33 30 30 28 29 29 28 26 25 24 24 24 22 21 22 20 18 18 18 19 19 20 21 20 20 20 21 21 20 19 20 24 26 24 24 23 24 26 27 25 24 24 23 21 20 19 18 15 13 12 14 14 15 14 16 16 14
nan nan nan nan nan nan nan nan nan nan nan nan nan nan nan nan nan nan nan 46 47 51 47 50 48 42 41 40 36 33 34 34 33 33 31 29 25 23 23 20 19 20 20 20 19 18 19 20 20 19 20 20 19 19 20 20 20 20 22 24 26 25 23 23 24 25 26 27 24 24 25 24 24 21 19 18 16 12 12 14 16 14 14 15 15 13
nan nan nan nan nan nan nan nan nan nan nan nan nan nan nan nan nan nan nan nan 49 48 43 47 50 43 40 37 33 37 35 32 33 30 29 29 25 21 20 18 17 16 17 19 20 20 20 19 20 20 21 21 19 19 19 20 20 21 23 25 24 23 23 24 24 24 23 23 23 22 22 22 21 18 16 15 12 11 14 15 12 14 13 13 13 12
nan nan nan nan nan nan nan nan nan nan nan nan nan nan nan nan nan nan nan nan nan nan 38 48 nan 46 45 34 33 35 32 32 34 29 27 26 22 17 16 17 15 16 17 17 17 18 19 18 20 21 20 18 15 15 17 18 19 21 23 23 23 23 23 23 23 21 21 22 21 21 21 20 18 16 15 13 12 13 15 14 13 12 nan nan nan nan
nan nan nan nan nan nan nan nan nan nan nan nan nan nan nan nan nan nan nan nan nan 45 47 45 45 45 41 33 34 35 32 34 33 28 23 22 19 16 15 16 15 14 16 17 16 15 15 16 19 20 17 13 13 15 18 19 19 21 22 22 23 23 22 22 22 20 19 21 21 21 19 17 16 15 14 13 14 16 15 14 12 nan 11 nan nan nan
nan nan nan nan nan nan nan nan nan nan nan nan nan nan nan nan nan nan nan nan 45 48 45 41 44 48 41 40 36 37 32 31 28 24 20 18 19 16 14 15 15 14 16 16 14 15 15 16 17 17 15 16 19 19 20 20 19 19 20 21 23 23 23 22 21 20 19 21 20 19 17 17 16 16 14 15 16 16 13 14 11 11 nan nan nan nan
nan nan nan nan nan nan nan nan nan nan nan nan nan nan nan nan nan nan nan nan 45 nan 43 36 40 nan 46 42 36 37 34 30 24 18 17 17 17 15 14 16 16 15 15 14 13 14 15 16 16 17 18 20 20 20 20 19 18 19 20 22 23 24 24 24 24 22 21 21 19 17 16 17 15 14 16 17 17 14 12 11 9 nan nan 11 nan nan
nan nan nan nan nan nan nan nan nan nan nan nan nan nan nan nan nan nan nan nan nan nan nan 37 37 nan nan 40 36 38 31 23 18 21 22 17 12 12 13 15 15 15 14 13 14 14 16 16 18 18 18 20 20 18 17 16 17 19 20 22 23 24 24 25 24 22 21 19 16 15 14 14 15 16 18 17 15 12 11 9 nan nan nan nan nan nan
nan nan nan nan nan nan nan nan nan nan nan nan nan nan nan nan nan nan nan nan nan nan nan nan 37 nan nan nan 38 32 25 14 18 16 16 14 11 11 13 14 13 14 14 15 16 16 18 19 19 18 18 18 18 15 14 15 18 20 21 22 23 23 23 22 22 21 20 19 16 13 13 15 15 16 16 15 13 10 8 nan nan nan nan nan nan nan
nan nan nan nan nan nan nan nan nan nan nan nan nan nan nan nan nan nan nan nan nan nan nan nan 43 50 nan nan 35 25 19 17 13 13 15 14 13 12 13 14 13 14 17 17 18 17 19 19 20 20 18 16 15 14 14 17 19 21 21 22 22 20 20 20 20 20 19 19 16 13 14 16 15 15 15 14 12 nan nan 7 nan nan nan nan nan nan
nan nan nan nan nan nan nan nan nan nan nan nan nan nan nan nan nan nan nan nan nan nan nan nan 41 46 nan nan nan 23 11 9 7 10 14 14 15 14 13 14 15 14 18 18 18 17 17 17 20 22 20 16 15 16 16 16 18 18 19 19 20 18 18 19 19 19 19 18 16 15 16 16 15 15 14 12 nan 8 7 9 12 nan nan nan nan nan
nan nan nan nan nan nan nan nan nan nan nan nan nan nan nan nan nan nan nan nan nan nan nan nan nan nan nan nan nan 17 11 13 13 16 20 19 18 16 15 14 15 16 17 18 16 15 15 16 19 20 20 17 16 18 18 16 16 17 18 18 20 19 17 19 19 19 19 16 16 17 17 16 15 14 13 11 9 nan nan nan nan nan nan nan nan nan
nan nan nan nan nan nan nan nan nan nan nan nan nan nan nan nan nan nan nan nan nan nan nan nan nan nan nan 44 37 28 23 26 32 28 26 24 22 17 15 14 15 18 17 16 13 13 15 17 18 20 20 18 18 19 19 18 17 17 18 19 20 21 20 21 21 19 18 15 15 15 16 15 15 13 nan nan nan nan nan 13 nan nan nan nan nan nan
nan nan nan nan nan nan nan nan nan nan nan nan nan nan nan nan nan nan nan nan nan nan nan 46 50 nan 48 nan 43 35 32 33 35 31 27 25 21 17 15 16 18 17 15 14 13 14 17 17 18 19 20 18 18 18 18 18 18 19 20 21 22 23 23 23 22 20 17 16 16 15 15 14 14 nan 14 14 14 14 12 13 13 nan nan nan nan nan
nan nan nan nan nan nan nan nan nan nan nan nan nan nan nan nan nan nan nan nan nan nan nan nan nan 48 nan nan 43 39 35 34 31 27 25 25 21 15 15 17 18 18 15 15 16 17 18 18 20 20 20 19 19 19 19 19 19 20 21 21 23 23 25 23 22 19 17 17 16 15 15 14 14 14 15 16 16 14 13 nan nan nan nan nan nan nan
nan nan nan nan nan nan nan nan nan nan nan nan nan nan nan nan nan nan nan nan nan nan nan nan nan 46 nan 41 41 36 33 33 30 28 28 22 16 15 18 19 19 18 17 17 18 19 18 19 21 21 20 20 20 19 19 20 21 22 22 20 22 23 23 22 20 19 18 17 16 14 14 15 15 15 16 15 15 nan nan nan nan nan nan nan nan nan
nan nan nan nan nan nan nan nan nan nan nan nan nan nan nan nan nan nan nan nan nan nan nan nan nan 41 nan 38 30 28 26 28 29 27 21 18 18 18 17 17 17 15 14 15 17 18 17 18 22 22 21 20 21 20 19 20 21 23 22 21 21 22 22 21 20 19 18 17 17 16 16 16 16 16 16 nan nan nan nan nan nan nan nan nan nan nan
nan nan nan nan nan nan nan nan nan nan nan nan nan nan nan nan nan nan nan nan nan nan nan nan nan nan nan nan 26 22 23 24 25 20 17 16 15 14 13 13 14 15 14 14 15 16 16 17 20 21 20 20 21 21 20 20 22 23 22 22 21 22 21 21 20 19 18 18 18 18 18 17 17 17 15 nan nan nan nan nan nan nan nan nan nan nan
nan nan nan nan nan nan nan nan nan nan nan nan nan nan nan nan nan nan nan nan nan nan nan nan nan nan 28 nan 24 23 23 22 18 17 17 15 14 12 11 11 11 12 11 13 14 15 17 18 20 21 20 20 21 20 19 20 22 23 22 21 21 21 21 22 20 20 19 18 18 19 19 19 17 16 14 14 nan nan nan nan nan nan nan nan nan nan
nan nan nan nan nan nan nan nan nan nan nan nan nan nan nan nan nan nan nan nan nan nan nan nan nan nan nan nan 23 23 25 18 14 18 19 19 16 12 10 9 10 11 13 14 15 15 16 19 19 19 19 19 21 20 19 20 21 22 22 21 20 22 21 22 22 22 21 19 19 20 20 19 18 16 15 15 16 nan nan nan nan nan nan nan nan nan
nan nan nan nan nan nan nan nan nan nan nan nan nan nan nan nan nan nan nan nan nan nan nan nan nan nan nan nan 22 27 29 25 22 22 23 23 20 18 17 16 17 18 17 16 16 15 16 17 17 16 17 18 19 19 19 20 21 22 21 19 20 23 24 24 23 23 21 20 21 20 20 20 18 17 16 17 17 18 nan nan nan nan nan nan nan nan
nan nan nan nan nan nan nan nan nan nan nan nan nan nan nan nan nan nan nan nan nan nan nan nan nan nan 23 nan 30 33 33 31 27 28 30 29 26 25 25 26 26 24 20 17 16 16 17 18 17 14 16 18 19 20 20 21 22 22 20 19 20 22 23 24 24 24 22 22 22 20 21 20 19 19 19 19 18 20 nan nan nan nan nan nan nan nan
nan nan nan nan nan nan nan nan nan nan nan nan nan nan nan nan nan nan nan nan nan nan nan nan nan nan 28 30 32 35 36 35 34 34 34 31 31 31 31 30 28 22 19 20 20 20 20 19 17 15 15 18 19 19 21 22 23 22 21 20 21 23 23 24 24 24 23 22 22 20 21 20 19 20 20 20 20 22 nan nan nan nan nan nan nan nan
nan nan nan nan nan nan nan nan nan nan nan nan nan nan nan nan nan nan nan nan nan nan nan nan nan nan 32 36 35 34 33 33 33 34 34 34 33 33 34 33 26 21 20 22 23 22 22 21 19 18 17 18 20 21 22 23 24 24 23 23 23 24 25 25 26 25 24 23 22 21 20 20 19 20 20 21 22 23 nan nan nan nan nan nan nan nan
nan nan nan nan nan nan nan nan nan nan nan nan nan nan nan nan nan nan nan nan nan nan nan nan nan 26 20 30 31 32 32 34 33 33 35 35 36 36 33 29 25 22 22 23 23 23 22 22 22 21 19 19 21 24 24 24 26 25 24 25 25 27 27 26 27 26 25 24 22 21 20 19 20 21 22 nan nan nan nan nan nan nan nan nan nan nan
nan nan nan nan nan nan nan nan nan nan nan nan nan nan nan nan nan nan nan nan nan nan nan nan 22 22 19 21 26 28 32 33 32 33 34 36 36 32 29 25 22 23 23 23 21 20 22 23 22 23 21 20 23 26 26 26 27 26 24 25 27 28 28 28 28 27 25 23 22 21 20 21 21 23 23 25 26 nan nan nan nan nan nan nan nan nan
nan nan nan nan nan nan nan nan nan nan nan nan nan nan nan nan nan nan nan nan nan nan nan nan 21 17 23 22 24 25 32 36 38 39 36 31 28 26 24 20 19 20 20 19 19 18 20 22 23 24 24 21 22 26 27 27 27 25 25 25 27 29 29 29 28 27 25 24 23 22 22 23 24 25 26 27 28 nan nan nan nan nan nan nan nan nan
nan nan nan nan nan nan nan nan nan nan nan nan nan nan nan nan nan nan nan nan nan nan nan nan 24 17 22 28 31 36 38 38 35 29 24 22 20 18 17 16 16 16 15 16 18 18 20 22 23 24 24 22 23 25 27 27 26 25 26 27 28 30 30 29 29 28 27 26 24 24 24 25 27 28 29 29 30 nan nan nan nan nan nan nan nan nan
nan nan nan nan nan nan nan nan nan nan nan nan nan nan nan nan nan nan nan nan nan nan 33 35 31 22 21 25 29 28 28 28 23 20 18 15 13 12 11 10 11 13 15 16 17 19 21 21 22 23 23 24 24 26 28 28 26 26 26 27 29 31 31 30 30 29 28 28 26 26 27 28 30 31 31 32 33 nan nan nan nan nan nan nan nan nan
nan nan nan nan nan nan nan nan nan nan nan nan nan nan nan nan nan nan nan nan nan 35 37 33 23 25 23 22 26 22 24 24 22 17 14 12 10 10 8 7 8 10 12 14 16 17 19 19 20 22 24 25 25 26 27 29 28 25 27 29 31 33 33 31 31 31 30 29 29 28 29 31 33 34 33 33 34 nan nan nan nan nan nan nan nan nan
nan nan nan nan nan nan nan nan nan nan nan nan nan nan nan nan nan nan nan nan nan nan 31 29 29 33 32 27 24 20 21 18 16 11 14 15 11 8 7 5 5 7 10 12 14 15 17 20 21 22 22 23 24 26 29 28 28 27 28 31 33 34 33 33 32 32 32 32 31 32 32 33 34 35 35 35 36 nan nan nan nan nan nan nan nan nan
nan nan nan nan nan nan nan nan nan nan nan 42 44 nan nan nan nan nan nan nan nan nan nan 37 37 33 27 25 23 18 13 12 16 18 14 11 12 10 8 7 9 13 15 15 15 16 18 18 20 22 23 23 23 25 28 28 29 30 30 32 33 33 35 33 33 32 32 33 34 35 34 34 35 36 36 37 39 nan nan nan nan nan nan nan nan nan
nan nan nan nan nan nan nan nan nan nan nan nan nan nan nan nan nan nan nan nan nan nan nan 36 32 29 28 32 34 33 32 33 33 28 22 17 13 13 14 14 17 18 17 15 15 16 18 19 20 21 21 24 26 26 26 27 29 31 31 31 33 34 34 34 33 33 33 35 36 36 36 35 36 38 nan nan nan nan nan nan nan nan nan nan nan nan
nan nan nan nan nan nan nan nan nan 45 nan nan nan nan nan nan nan nan nan nan nan nan nan nan 37 35 37 38 36 37 37 37 33 28 23 19 17 18 16 17 19 16 14 14 17 18 19 20 20 21 24 24 25 27 26 27 28 30 32 32 32 33 34 35 34 34 34 35 37 38 37 37 38 nan nan nan nan nan nan nan nan nan nan nan nan nan
nan nan nan nan nan nan nan nan nan nan nan nan nan nan nan nan nan nan nan nan nan nan nan nan 37 37 39 39 39 39 42 42 32 19 18 18 18 17 19 21 19 16 16 17 20 23 24 24 26 27 27 26 25 26 28 30 30 30 30 31 31 32 33 34 34 35 36 36 39 41 39 38 nan nan nan nan nan nan nan nan nan nan nan nan nan nan
nan nan nan nan nan nan nan nan nan nan nan nan nan nan nan nan nan nan nan nan nan 43 nan nan 43 40 39 42 42 44 44 37 25 16 19 22 20 19 20 20 20 19 19 22 25 28 30 31 33 33 30 28 26 26 29 31 31 31 29 30 30 31 32 32 34 35 36 39 40 40 38 37 37 38 nan nan nan nan nan nan nan nan nan nan nan nan
nan nan nan nan nan nan nan nan nan nan nan nan nan nan nan nan nan nan nan nan nan 44 41 nan 41 41 40 41 42 42 39 30 24 16 27 27 25 24 25 26 27 28 30 33 34 34 34 35 36 32 29 26 26 29 30 31 31 30 30 30 31 31 30 31 33 37 39 40 40 40 nan 36 37 nan nan nan nan nan nan nan nan nan nan nan nan nan
nan nan nan nan nan nan nan nan nan nan nan nan nan nan nan nan nan nan nan 42 43 43 40 nan nan 37 40 37 36 35 26 29 29 34 39 36 35 31 30 31 32 35 37 38 37 38 36 33 32 32 30 28 29 30 31 32 32 32 31 32 31 29 30 35 38 40 41 40 40 40 39 37 36 nan nan nan nan nan nan nan nan nan nan nan nan nan
nan nan nan nan nan nan nan nan nan 37 nan 43 44 nan nan nan nan nan 44 44 45 44 43 39 nan 34 34 33 29 28 28 37 41 40 41 39 34 31 33 36 39 39 38 38 39 39 38 36 34 33 32 31 32 32 32 33 32 32 33 32 30 31 36 39 39 40 40 40 41 40 38 37 36 nan nan nan nan nan nan nan nan nan nan nan nan nan
nan nan nan nan nan nan nan nan nan nan nan 36 nan nan nan nan nan 44 47 47 43 44 46 44 41 nan 34 32 30 28 33 41 42 41 39 38 39 38 37 37 38 38 39 40 37 36 39 38 37 36 35 34 33 33 33 34 34 34 34 32 33 38 nan 40 40 41 42 43 nan 41 39 37 37 nan nan nan nan nan nan nan nan nan nan nan nan nan
nan nan nan nan nan nan nan nan nan 26 24 27 28 nan 27 28 31 36 45 50 50 48 48 48 47 nan nan 38 36 36 43 45 45 44 43 40 39 40 38 36 37 37 36 35 36 36 37 37 37 37 37 36 35 34 34 35 36 36 35 nan nan nan 41 41 41 43 43 42 41 40 nan nan nan nan nan nan nan nan nan nan nan nan nan nan nan nan
nan nan nan nan nan nan nan 24 23 23 20 22 23 24 25 26 26 26 34 39 46 49 48 50 47 44 39 37 38 42 42 43 44 43 45 41 42 41 38 34 34 34 35 36 35 34 34 35 36 37 37 37 36 35 35 35 36 37 36 37 nan nan 41 42 43 43 42 42 40 nan nan nan nan nan nan nan nan nan nan nan nan nan nan nan nan nan
nan nan nan nan nan 27 25 25 25 25 27 28 28 26 27 28 27 28 30 34 35 36 37 39 40 36 33 32 33 33 35 39 42 39 39 38 37 35 35 34 33 34 34 35 34 33 33 35 35 35 36 35 36 36 36 35 36 36 35 39 40 nan 42 43 43 43 41 41 41 nan nan nan nan nan nan nan nan nan nan nan nan nan nan nan nan nan
nan nan nan 33 32 36 31 30 33 28 27 28 28 29 30 29 28 27 32 33 31 33 34 33 33 33 31 31 29 31 33 35 36 35 36 36 35 33 32 31 32 34 34 34 34 36 35 35 35 34 34 35 34 36 36 36 35 35 38 40 nan nan nan nan 43 42 42 42 43 nan nan nan nan 38 37 nan nan nan nan nan nan nan nan nan nan nan
nan nan 38 36 37 36 32 32 31 29 28 28 29 30 35 35 35 34 33 32 33 34 35 34 32 35 33 33 32 34 32 32 33 31 31 29 30 30 30 30 31 32 33 35 36 35 35 35 34 35 35 34 35 36 37 37 38 39 41 41 nan nan nan 43 42 42 42 43 nan nan nan nan nan nan 37 nan nan nan nan nan nan nan nan nan nan nan
nan nan 29 nan 35 34 34 32 32 33 37 36 35 34 32 32 35 37 36 38 38 40 38 37 37 35 34 33 34 35 35 31 29 29 29 28 28 27 26 27 28 30 33 34 33 32 32 32 32 33 34 34 36 37 37 nan nan nan 42 41 42 nan 43 42 42 42 43 nan nan nan nan nan nan nan nan nan nan nan nan nan nan nan nan nan nan nan
nan nan nan nan nan nan 27 28 31 35 31 32 33 33 33 34 36 38 38 40 40 39 37 38 36 34 35 34 32 33 33 30 29 28 28 27 26 28 29 30 30 30 30 30 31 31 31 31 32 32 32 33 nan nan nan nan nan nan nan nan nan nan 42 42 42 41 42 nan nan nan nan nan nan nan nan nan nan nan nan nan nan nan nan nan nan nan
nan nan nan 23 nan 19 nan 21 27 29 31 29 30 31 31 31 35 40 37 37 36 35 34 36 36 35 34 33 31 31 31 30 28 29 30 28 26 27 29 32 32 31 31 32 34 33 33 32 32 32 32 32 34 35 nan nan nan nan nan nan nan nan 41 42 nan 39 nan nan nan nan nan nan nan nan nan nan nan nan nan nan nan nan nan nan nan nan
Wind_Direction
nan nan nan nan nan nan nan nan nan nan nan nan nan nan nan nan nan nan nan nan nan nan nan nan 241 252 258 259 260 259 259 260 263 272 269 266 265 270 274 276 280 286 289 286 288 289 288 282 284 290 293 293 291 287 285 280 275 275 274 272 270 265 265 267 267 268 274 277 278 267 261 265 265 261 260 257 257 259 261 262 260 257 249 240 236 236
nan nan nan nan nan nan nan nan nan nan nan nan nan nan nan nan nan nan nan nan nan nan 221 229 243 246 254 252 254 256 260 273 279 276 270 269 262 263 278 285 283 284 278 288 293 299 297 291 295 296 298 299 297 292 287 286 279 273 275 276 273 267 267 267 269 271 270 277 285 277 265 267 264 262 262 263 259 261 262 260 257 250 240 232 229 230
nan nan nan nan nan nan nan nan nan nan nan nan nan nan nan nan nan nan nan nan nan nan 220 230 237 239 245 248 247 255 259 252 256 255 261 265 269 266 275 284 287 288 290 296 302 299 299 299 301 301 302 301 299 296 292 282 278 277 274 274 282 280 276 268 267 267 272 275 275 267 260 265 263 252 257 261 261 261 261 252 240 230 226 228 231 232
nan nan nan nan nan nan nan nan nan nan nan nan nan nan nan nan nan nan nan nan 215 nan 227 229 235 234 237 237 236 239 243 242 243 246 254 262 271 276 280 288 293 298 294 305 309 309 302 299 302 302 303 300 296 292 287 285 283 275 271 278 288 285 275 271 268 268 270 272 266 255 257 257 260 264 258 255 251 250 251 239 226 225 232 238 241 239
nan nan nan nan nan nan nan nan nan nan nan nan nan nan nan nan nan nan nan 212 215 216 229 231 229 229 232 234 232 235 235 242 243 244 254 256 260 262 269 282 291 295 295 300 308 301 293 302 311 309 303 299 296 291 288 284 277 268 273 281 287 283 277 274 275 276 276 272 259 256 257 260 260 253 250 249 241 240 246 236 229 237 245 247 247 246
nan nan nan nan nan nan nan nan nan nan nan nan nan nan nan nan nan nan nan nan 213 216 217 236 224 224 228 229 231 234 235 242 246 251 254 262 267 271 282 289 291 290 299 301 306 298 298 304 305 303 301 301 296 294 286 280 273 271 274 279 281 276 275 278 279 281 276 269 267 268 269 267 262 258 251 250 256 249 241 237 238 243 241 245 248 247
nan nan nan nan nan nan nan nan nan nan nan nan nan nan nan nan nan nan nan nan nan nan 216 215 nan 223 223 228 232 235 237 241 244 251 254 260 267 274 282 285 292 296 299 303 301 299 303 305 302 302 297 295 292 288 283 279 276 277 279 280 277 276 277 281 282 279 267 260 262 268 270 271 271 264 243 245 246 248 242 239 239 238 nan nan nan nan
nan nan nan nan nan nan nan nan nan nan nan nan nan nan nan nan nan nan nan nan nan 214 220 219 223 232 228 223 232 239 239 241 243 248 258 259 273 279 275 290 295 295 298 304 313 312 311 310 310 303 297 291 294 289 287 284 281 283 279 278 277 278 282 283 281 272 263 262 261 261 259 260 260 254 256 258 250 237 236 239 235 nan 235 nan nan nan
nan nan nan nan nan nan nan nan nan nan nan nan nan nan nan nan nan nan nan nan 212 219 217 213 217 227 225 223 235 240 238 241 243 250 262 271 277 282 281 281 290 293 295 302 313 323 322 315 304 295 286 286 292 293 293 288 282 277 275 274 277 282 284 280 275 268 261 261 263 262 261 257 250 257 256 249 239 235 235 244 233 237 nan nan nan nan
nan nan nan nan nan nan nan nan nan nan nan nan nan nan nan nan nan nan nan nan 214 nan 214 215 217 nan 220 219 234 237 234 237 239 251 263 275 280 288 286 276 279 281 287 298 311 314 317 311 299 291 279 287 291 286 286 282 275 273 273 276 279 281 278 276 273 270 266 263 261 260 260 268 267 266 253 240 239 238 238 242 234 nan nan 247 nan nan
nan nan nan nan nan nan nan nan nan nan nan nan nan nan nan nan nan nan nan nan nan nan nan 219 218 nan nan 221 231 241 240 248 251 245 249 262 283 297 288 281 275 274 282 286 296 301 304 307 301 292 290 286 285 282 285 277 272 273 275 278 281 279 274 273 274 273 271 266 259 257 267 274 275 265 253 247 244 242 235 238 nan nan nan nan nan nan
nan nan nan nan nan nan nan nan nan nan nan nan nan nan nan nan nan nan nan nan nan nan nan nan 227 nan nan nan 222 229 237 259 261 267 277 287 315 312 293 281 274 266 267 277 288 294 298 303 300 297 290 284 284 287 286 271 269 272 275 280 282 279 274 271 273 274 272 267 254 249 264 266 260 259 253 257 258 247 247 nan nan nan nan nan nan nan
nan nan nan nan nan nan nan nan nan nan nan nan nan nan nan nan nan nan nan nan nan nan nan nan 232 222 nan nan 228 236 222 229 250 270 289 305 316 305 289 289 277 261 261 277 287 287 296 302 297 294 286 281 286 293 287 276 268 271 277 283 281 275 271 269 271 272 267 261 252 247 252 253 250 250 254 253 251 nan nan 263 nan nan nan nan nan nan
nan nan nan nan nan nan nan nan nan nan nan nan nan nan nan nan nan nan nan nan nan nan nan nan 234 227 nan nan nan 231 231 221 248 263 277 294 299 299 292 282 272 269 270 282 288 292 296 299 302 297 288 286 284 284 285 281 271 270 277 279 274 267 264 265 267 267 262 256 247 239 245 249 249 248 247 246 nan 262 266 266 269 nan nan nan nan nan
nan nan nan nan nan nan nan nan nan nan nan nan nan nan nan nan nan nan nan nan nan nan nan nan nan nan nan nan nan 228 229 205 205 224 238 248 243 246 253 262 275 286 287 289 290 295 298 299 299 293 289 285 277 278 282 280 272 269 272 271 267 263 264 270 271 267 261 249 240 235 238 242 240 246 249 253 267 nan nan nan nan nan nan nan nan nan
nan nan nan nan nan nan nan nan nan nan nan nan nan nan nan nan nan nan nan nan nan nan nan nan nan nan nan 224 213 209 217 220 219 230 242 246 244 249 254 268 289 298 297 292 287 288 292 292 292 288 287 280 270 275 277 280 274 269 264 262 262 266 266 270 272 267 258 243 234 235 240 242 246 249 nan nan nan nan nan 280 nan nan nan nan nan nan
nan nan nan nan nan nan nan nan nan nan nan nan nan nan nan nan nan nan nan nan nan nan nan 220 218 nan 220 nan 212 220 234 233 232 233 242 247 249 254 259 273 290 296 293 288 285 281 286 284 285 285 286 274 268 271 276 276 274 271 266 263 260 261 260 265 267 262 250 241 238 236 242 249 257 nan 279 283 284 283 278 278 284 nan nan nan nan nan
nan nan nan nan nan nan nan nan nan nan nan nan nan nan nan nan nan nan nan nan nan nan nan nan nan 225 nan nan 218 223 234 238 244 240 246 251 253 268 276 284 291 289 281 276 274 274 280 283 283 279 281 276 270 269 269 271 268 269 267 268 267 266 266 260 260 254 248 247 241 242 248 255 269 275 277 280 283 282 281 nan nan nan nan nan nan nan
nan nan nan nan nan nan nan nan nan nan nan nan nan nan nan nan nan nan nan nan nan nan nan nan nan 223 nan 229 230 230 240 243 244 241 247 261 275 294 292 287 280 277 270 272 277 276 278 284 285 283 280 276 271 266 266 265 268 268 267 268 271 268 263 260 250 243 237 241 239 242 254 263 266 269 271 271 274 nan nan nan nan nan nan nan nan nan
nan nan nan nan nan nan nan nan nan nan nan nan nan nan nan nan nan nan nan nan nan nan nan nan nan 224 nan 226 240 249 250 256 255 256 270 295 312 305 291 280 277 283 279 277 279 276 277 282 286 283 278 274 273 269 266 269 268 273 271 270 266 258 250 245 243 240 240 237 246 250 253 256 263 265 268 nan nan nan nan nan nan nan nan nan nan nan
nan nan nan nan nan nan nan nan nan nan nan nan nan nan nan nan nan nan nan nan nan nan nan nan nan nan nan nan 238 245 259 264 274 285 289 296 305 301 294 291 288 288 274 271 275 277 277 276 279 276 270 265 262 262 263 266 271 272 271 273 273 264 247 241 237 237 238 242 249 258 261 262 260 260 258 nan nan nan nan nan nan nan nan nan nan nan
nan nan nan nan nan nan nan nan nan nan nan nan nan nan nan nan nan nan nan nan nan nan nan nan nan nan 219 nan 245 240 245 263 284 293 284 292 293 294 299 307 302 295 278 273 273 275 278 274 273 270 266 262 261 263 268 266 269 274 276 275 267 253 245 245 240 239 241 241 248 256 258 257 252 253 256 267 nan nan nan nan nan nan nan nan nan nan
nan nan nan nan nan nan nan nan nan nan nan nan nan nan nan nan nan nan nan nan nan nan nan nan nan nan nan nan 242 244 243 249 266 265 270 279 284 281 287 297 304 305 295 289 280 274 276 277 274 272 269 263 263 262 263 264 271 274 275 272 261 254 247 244 243 240 241 243 248 252 253 253 251 252 261 268 268 nan nan nan nan nan nan nan nan nan
nan nan nan nan nan nan nan nan nan nan nan nan nan nan nan nan nan nan nan nan nan nan nan nan nan nan nan nan 224 231 231 232 240 258 272 267 258 257 264 275 285 288 286 278 270 268 273 274 272 273 269 259 256 261 264 263 264 269 273 270 259 253 251 247 245 243 243 244 248 252 253 252 253 259 262 264 268 277 nan nan nan nan nan nan nan nan
nan nan nan nan nan nan nan nan nan nan nan nan nan nan nan nan nan nan nan nan nan nan nan nan nan nan 211 nan 229 231 234 239 244 241 244 252 253 257 265 270 278 283 280 271 267 271 274 278 284 285 276 263 258 258 261 263 266 268 268 264 258 252 251 248 245 245 243 247 251 252 256 256 258 262 262 266 273 281 nan nan nan nan nan nan nan nan
nan nan nan nan nan nan nan nan nan nan nan nan nan nan nan nan nan nan nan nan nan nan nan nan nan nan 212 219 233 235 238 237 238 243 244 250 260 268 272 277 281 279 271 266 266 271 279 280 280 278 273 265 261 261 264 264 265 265 264 262 259 260 256 251 246 245 245 248 253 252 258 259 260 265 268 274 280 286 nan nan nan nan nan nan nan nan
nan nan nan nan nan nan nan nan nan nan nan nan nan nan nan nan nan nan nan nan nan nan nan nan nan nan 226 234 238 242 245 248 252 256 264 267 270 275 282 286 283 272 266 270 271 268 268 268 275 277 272 268 266 261 261 264 265 266 264 264 261 261 260 255 251 248 247 250 255 256 259 262 264 268 272 277 283 286 nan nan nan nan nan nan nan nan
nan nan nan nan nan nan nan nan nan nan nan nan nan nan nan nan nan nan nan nan nan nan nan nan nan 244 237 241 245 253 252 250 254 261 266 270 279 285 285 280 272 264 259 261 262 263 267 267 267 270 267 262 263 262 259 260 265 267 268 267 263 263 261 255 253 250 248 251 254 257 261 263 265 267 271 nan nan nan nan nan nan nan nan nan nan nan
nan nan nan nan nan nan nan nan nan nan nan nan nan nan nan nan nan nan nan nan nan nan nan nan 241 244 236 257 266 265 267 270 276 281 279 278 277 277 279 277 269 264 265 267 268 265 260 262 265 269 265 258 257 263 264 263 263 264 266 268 269 267 266 261 257 253 250 251 256 258 260 262 262 265 270 275 279 nan nan nan nan nan nan nan nan nan
nan nan nan nan nan nan nan nan nan nan nan nan nan nan nan nan nan nan nan nan nan nan nan nan 251 250 240 255 269 268 261 259 257 259 264 276 284 282 281 276 270 265 266 267 266 265 263 264 264 267 265 259 260 262 264 264 266 270 273 271 268 266 264 262 258 256 254 255 257 257 260 264 265 269 272 275 279 nan nan nan nan nan nan nan nan nan
nan nan nan nan nan nan nan nan nan nan nan nan nan nan nan nan nan nan nan nan nan nan nan nan 229 217 218 233 234 236 246 252 254 265 274 277 280 285 284 275 264 261 259 257 255 256 256 257 260 264 268 268 264 264 264 265 266 268 269 269 268 267 265 263 260 257 257 258 258 260 262 265 268 271 274 277 278 nan nan nan nan nan nan nan nan nan
nan nan nan nan nan nan nan nan nan nan nan nan nan nan nan nan nan nan nan nan nan nan 221 225 217 204 211 227 237 235 243 257 267 270 267 266 278 285 288 279 271 264 259 257 259 258 258 261 265 271 275 273 268 265 262 264 265 267 269 267 266 265 265 263 261 260 259 259 259 260 264 266 270 272 275 278 281 nan nan nan nan nan nan nan nan nan
nan nan nan nan nan nan nan nan nan nan nan nan nan nan nan nan nan nan nan nan nan 227 226 227 218 217 225 241 248 247 254 255 261 278 278 264 277 292 292 285 277 269 271 270 267 267 267 270 274 276 274 271 270 267 264 266 264 266 267 267 264 263 265 264 263 262 261 260 262 262 263 266 270 273 276 280 283 nan nan nan nan nan nan nan nan nan
nan nan nan nan nan nan nan nan nan nan nan nan nan nan nan nan nan nan nan nan nan nan 216 218 224 226 235 238 256 255 261 270 287 291 293 293 275 250 235 243 269 282 281 278 275 270 267 260 257 263 271 274 272 270 268 270 270 265 264 264 264 267 266 267 265 264 264 265 265 265 265 268 271 274 277 281 284 nan nan nan nan nan nan nan nan nan
nan nan nan nan nan nan nan nan nan nan nan 189 193 nan nan nan nan nan nan nan nan nan nan 224 228 239 247 250 254 258 270 269 251 258 256 252 262 261 271 274 280 285 291 284 270 259 257 261 261 260 262 268 272 268 267 267 266 263 261 264 268 267 269 268 268 266 267 268 267 268 269 271 273 276 279 283 285 nan nan nan nan nan nan nan nan nan
nan nan nan nan nan nan nan nan nan nan nan nan nan nan nan nan nan nan nan nan nan nan nan 219 231 239 242 231 224 221 222 227 232 231 234 237 244 253 268 277 289 292 291 281 279 274 270 272 278 280 279 271 272 273 274 274 269 269 267 264 266 268 270 271 270 269 269 270 272 273 274 275 277 279 nan nan nan nan nan nan nan nan nan nan nan nan
nan nan nan nan nan nan nan nan nan 193 nan nan nan nan nan nan nan nan nan nan nan nan nan nan 220 226 229 228 232 233 238 239 242 242 242 249 246 247 268 282 288 297 294 275 272 274 275 272 272 272 270 273 277 277 278 272 271 271 269 268 265 267 269 271 273 273 273 273 274 276 277 278 280 nan nan nan nan nan nan nan nan nan nan nan nan nan
nan nan nan nan nan nan nan nan nan nan nan nan nan nan nan nan nan nan nan nan nan nan nan nan 230 231 235 234 241 247 249 251 251 252 261 263 267 262 247 244 243 247 253 253 246 245 252 257 262 268 276 279 278 278 274 273 274 273 273 274 272 271 271 272 274 274 275 275 275 275 277 280 nan nan nan nan nan nan nan nan nan nan nan nan nan nan
nan nan nan nan nan nan nan nan nan nan nan nan nan nan nan nan nan nan nan nan nan 219 nan nan 236 236 243 251 252 255 254 256 260 263 275 279 274 265 261 263 268 266 259 260 267 270 269 269 275 276 276 277 276 272 272 274 276 277 278 277 276 275 276 277 276 278 278 275 274 276 278 280 281 281 nan nan nan nan nan nan nan nan nan nan nan nan
nan nan nan nan nan nan nan nan nan nan nan nan nan nan nan nan nan nan nan nan nan 214 221 nan 241 246 244 247 252 256 262 260 258 266 278 286 281 273 276 278 273 266 262 263 266 269 270 270 272 274 276 275 271 268 272 272 272 274 274 274 274 277 278 278 277 273 271 273 275 277 nan 279 279 nan nan nan nan nan nan nan nan nan nan nan nan nan
nan nan nan nan nan nan nan nan nan nan nan nan nan nan nan nan nan nan nan 216 219 221 216 nan nan 242 246 247 249 253 253 263 260 251 264 268 264 260 260 264 268 271 274 275 275 274 273 274 278 280 280 272 267 267 268 267 268 269 269 270 272 276 273 268 268 270 271 273 276 277 277 275 277 nan nan nan nan nan nan nan nan nan nan nan nan nan
nan nan nan nan nan nan nan nan nan 196 nan 204 204 nan nan nan nan nan 213 218 222 223 225 222 nan 234 243 252 249 250 259 254 252 259 269 278 289 284 275 271 268 267 266 267 273 275 272 271 269 267 266 265 268 268 266 267 268 268 268 270 274 272 266 267 270 271 272 273 274 275 275 275 274 nan nan nan nan nan nan nan nan nan nan nan nan nan
nan nan nan nan nan nan nan nan nan nan nan 206 nan nan nan nan nan 217 219 218 221 224 226 225 229 nan 238 248 253 255 248 249 253 264 272 273 274 278 281 281 281 280 276 271 270 270 272 271 271 270 269 265 266 266 265 267 268 265 266 271 272 266 nan 268 270 272 272 274 nan 275 275 273 276 nan nan nan nan nan nan nan nan nan nan nan nan nan
nan nan nan nan nan nan nan nan nan 201 195 196 206 nan 205 214 217 220 223 221 223 227 230 229 228 nan nan 247 253 249 245 249 251 258 265 270 273 273 275 275 271 269 271 273 274 273 272 271 270 270 267 265 265 264 264 267 266 265 267 nan nan nan 266 269 269 270 273 275 274 272 nan nan nan nan nan nan nan nan nan nan nan nan nan nan nan nan
nan nan nan nan nan nan nan 196 194 201 204 202 217 218 217 214 219 223 223 224 225 225 231 235 236 238 246 246 241 243 243 245 250 258 268 272 273 276 279 282 284 283 281 279 278 275 273 274 272 268 265 264 266 265 264 265 268 269 271 265 nan nan 271 270 271 272 273 276 277 nan nan nan nan nan nan nan nan nan nan nan nan nan nan nan nan nan
nan nan nan nan nan 214 211 213 211 212 215 215 222 228 232 228 224 227 231 227 223 225 228 232 238 241 240 243 243 237 242 245 249 251 251 259 266 265 262 261 260 262 266 268 271 275 272 268 269 271 271 268 268 266 265 266 268 272 270 266 270 nan 272 272 273 272 273 274 274 nan nan nan nan nan nan nan nan nan nan nan nan nan nan nan nan nan
nan nan nan 227 224 229 230 222 222 221 218 221 226 230 232 234 232 232 234 233 229 228 229 229 234 236 241 246 247 244 242 246 249 248 249 250 254 259 264 267 266 269 273 274 272 271 270 271 273 274 274 272 268 267 266 267 267 269 267 270 nan nan nan nan 276 276 275 275 274 nan nan nan nan 279 280 nan nan nan nan nan nan nan nan nan nan nan
nan nan 230 229 231 232 232 230 227 224 223 224 228 231 233 231 232 230 234 235 237 237 238 235 238 238 240 244 247 250 249 248 254 255 256 256 257 258 261 263 264 261 260 263 267 273 270 273 274 274 274 273 270 268 267 267 267 265 265 265 nan nan nan 275 277 277 276 276 nan nan nan nan nan nan 280 nan nan nan nan nan nan nan nan nan nan nan
nan nan 229 nan 232 231 231 231 231 230 227 225 225 230 231 231 236 233 234 235 237 239 239 239 242 243 243 244 248 251 250 247 251 257 259 257 256 256 259 260 259 260 263 267 269 273 277 275 276 276 276 272 269 269 268 nan nan nan 267 268 271 nan 276 277 277 278 279 nan nan nan nan nan nan nan nan nan nan nan nan nan nan nan nan nan nan nan
nan nan nan nan nan nan 237 236 238 240 235 233 229 227 226 229 235 236 233 232 232 235 235 241 239 240 244 243 244 249 253 249 249 252 255 255 257 257 257 258 258 260 260 260 265 268 267 269 273 274 274 271 nan nan nan nan nan nan nan nan nan nan 278 278 278 280 281 nan nan nan nan nan nan nan nan nan nan nan nan nan nan nan nan nan nan nan
nan nan nan 227 nan 223 nan 228 234 233 239 234 232 225 225 227 233 234 233 232 231 233 236 239 238 234 235 236 242 249 251 255 253 250 251 251 255 257 262 267 267 264 265 265 266 264 267 266 268 269 271 271 271 271 nan nan nan nan nan nan nan nan 280 280 nan 280 nan nan nan nan nan nan nan nan nan nan nan nan nan nan nan nan nan nan nan nan